STARLINK-1666, 46357

Orbit data source: Space-Track

STARLINK-1666, 46357 is a payload satellite owned by SpaceX/Seattle (US) in LEO that was launched on Thu, 03 Sep 2020 UTC via an FALCON 9 launch vehicle from the Air Force Eastern Test Range (AFETR). Payload-class satellites include a variety of spacecraft equipped with specific instruments for various scientific and technological missions. These include communications satellites like Starlink; space stations such as the ISS; scientific satellites like the Hubble; Earth observation satellites from companies like Planet Labs, Umbra, and HawkEye 360; GPS; miniature CubeSats for education and research; and military/defense satellites.

Loading next visibility...
Identifier
46357, 2020-062AJ
Orbit
LEO
Country
Flag of USUS
Related business
Manufacturer
SpaceX/Seattle
Mission
Operational Commercial Communications
Bus & Motor
STARLINK, Unknown motor
Mass
260 kg wet, ~248 kg dry
Launch date (UTC)
2020-09-03 (5 years ago)
Launch vehicle
FALCON 9
Launch site
Air Force Eastern Test Range (AFETR)
Object type
Payload
Rocket body
Debris
Shape & HBR
Box + 1 Pan, 4.4 m
Radar Cross Section
13.562 m², Large (>1 m²)

Expand to show TLE details & history
Last TLE update: 8 hours ago

TLE from 8 hours ago
0 STARLINK-1666
1 46357U 20062AJ  25242.96772669  .00013248  00000-0  90628-3 0  9998
2 46357  53.0536 132.8014 0001512  89.6631 270.4531 15.06411980275843
Epoch: 2025-08-30T23:13Z
TLE epoch observation values (Epoch: 2025-08-30T23:13:31.586Z)
Latitude
-0.00002°
Longitude
165.02536°
Altitude
548.046 km
Speed
7.589 km/s
True Right ascension
08h 51m 12s
True Declination
0° 00' 00"
Sunlit
Object was in daylight at epoch
Visualization orbit readout
Latitude
Unknown
Longitude
Unknown
Altitude
Unknown
Speed
Unknown
Apparent Right ascension
Unknown
Apparent Declination
Unknown
Sunlit
N/A
Visualization observer readout
Local Sidereal Time
22:53:22
Azimuth
Unknown
Elevation
Unknown
Doppler factor
Unknown
Orbital elements
Apogee altitude
548.493 km
Perigee altitude
546.399 km
Semi-major axis
6,925.583 km
Eccentricity
0.00015
Inclination
53.0536°
RAAN
132.8014°
Arg. of periapsis
89.6631°
True anomaly
270.43577°
Mean anomaly
270.4531°
Eccentric anomaly
270.44444°
Mean motion
3.76581 °/min
Orbital period
95.6 mins
BSTAR
0.00090628
Loading maneuver chart data...
Computing Atmospheric mass density...
Loading historical data...
Loading historical data...
Loading historical data...
Loading historical data...
Loading historical data...
Loading historical data...
Loading historical data...

Documentation

Showing up to 5 results
|